Regional Weather Roundup
Issued by NWS

Home | Current Version | Previous Version | Graphics & Text | Print | Product List | Glossary Off
Versions: 1 2 3 4 5 6 7 8 9 10 11 12 13 14 15 16 17 18 19 20 21 22 23 24 25 26 27 28 29 30 31 32 33 34 35 36 37 38 39 40 41 42 43 44 45 46 47 48 49 50

000
ASUS43 KTOP 250308
RWRKS

WEATHER ROUNDUP FOR KANSAS
NATIONAL WEATHER SERVICE GOODLAND KS
1000 PM CDT SUN MAY 24 2015

NOTE:  "FAIR" INDICATES FEW OR NO CLOUDS BELOW 12,000 FEET WITH NO
SIGNIFICANT WEATHER AND/OR OBSTRUCTIONS TO VISIBILITY.

KSZ001>006-013>018-027>032-041>047-250400-
NORTHWEST KANSAS

CITY           SKY/WX    TMP DP  RH WIND       PRES   REMARKS
GOODLAND       LGT RAIN  52  49  89 MISG      29.83F
HAYS           CLOUDY    63  55  77 S10       29.82R
HILL CITY      CLOUDY    63  60  90 S9        29.81R
RUSSELL        CLOUDY    63  60  90 S13       29.81R
$$

KSZ061>065-074>080-084>089-250400-
SOUTHWEST KANSAS

CITY           SKY/WX    TMP DP  RH WIND       PRES   REMARKS
DODGE CITY     CLOUDY    61  58  90 S16       29.82R FOG
ELKHART          N/A     58  45  62 NW13        N/A
GARDEN CITY    MOCLDY    61  58  90 SE23G37   29.72F
GREAT BEND     CLOUDY    61  55  82 SE9       29.82R
LIBERAL        CLOUDY    64  57  77 SE16G23   29.74F
PRATT          CLOUDY    59  55  88 SE9       29.83S
$$

KSZ066>073-081>083-090>101-250400-
SOUTHEAST KANSAS

CITY           SKY/WX    TMP DP  RH WIND       PRES   REMARKS
CHANUTE        LGT RAIN  62  61  96 CALM      29.87S
COFFEYVILLE    LGT RAIN  62  61  96 SW3       29.88R
HUTCHINSON     CLOUDY    60  57  89 S3        29.82R
MEDICINE LODGE   N/A     61  58  90 SE6       29.82R
NEWTON         CLOUDY    61  55  82 S13       29.84R
PARSONS        LGT RAIN  62  62 100 CALM      29.89R
WICHITA INTL   CLOUDY    61  59  93 SW8       29.84R
WICHITA JABRA  CLOUDY    61  59  93 S6        29.82S
WICHITA MCCONL CLOUDY    62  60  96 SW9       29.85R
WINFIELD       CLOUDY    63  61  93 S10       29.83R
$$

KSZ007>012-019>026-033>040-048>060-102>105-250400-
NORTHEAST KANSAS

CITY           SKY/WX    TMP DP  RH WIND       PRES   REMARKS
CONCORDIA      CLOUDY    64  61  90 S9        29.81R
EMPORIA        CLOUDY    62  60  93 S8        29.83R
LAWRENCE       CLOUDY    64  61  90 S3        29.82R
MANHATTAN      CLOUDY    65  61  87 S7        29.80S
MARYSVILLE     CLOUDY    63  61  94 SW6       29.80R
OLATHE IND     CLOUDY    64  62  93 S7        29.83S
OLATHE EXE     CLOUDY    63  62  97 S5        29.82F
SALINA         CLOUDY    63  58  83 SW8       29.82R
TOPEKA BILLARD CLOUDY    64  62  93 CALM      29.82R
TOPEKA FORBES  CLOUDY    65  61  87 S6        29.81S
$$


USA.gov is the U.S. government's official web portal to all federal, state and local government web resources and services.